カタログに戻る

SL-8 R/B

運用中PO
NORAD 9510·ROCKET BODY·🇷🇺 Russia

打ち上げ Oct 29, 1976 から Plesetsk Cosmodrome

Loading…

次のパス (今後24時間)

TLE

最新Source: Space-Track

元期: Sep 14, 2026, 08:01 UTC

1 09510U 76108B   26257.33441934  .00000029  00000-0  13608-4 0  9993
2 09510  82.9383  30.9403 0027398  85.0829 275.3456 13.77894620506336

AllMySatでSL-8 R/Bをリアルタイム追跡

Download on the App Store